date,batt_volt,AirTemp_C,Solar_kW,RH,Manual_BP,StationID,WS_ms,PTemp,WS_15min_max,Prog_Sig,Solar_Raw,Bar_mbar,Solar_MJ,Max_WS_2min,Pressure_Raw,Rain_mm,WD_15min_ave,Max_AirTemp_1min,WindDir,WS_15min_med,WS_15min_ave,Elevation_Correction
2020-07-01T00:04:10Z,12.77624,21.29904,0.005295828,87.34774,0,1156,0.5684,25.13168,1.1956,43690,0.370708,1013.668,2.647914e-05,0.9020001,1011.867,0.0,104.681011321,21.33,97.42082,0.6468,0.684724246154,1.80078
2020-07-01T00:19:10Z,12.78175,21.29904,0.001926052,87.55073,0,1156,1.078,24.65724,1.0388,43690,0.1348237,1013.668,9.630261e-06,0.9020001,1011.867,0.0,97.9121373617,21.3,100.5673,0.588,0.61049940355,1.80078
2020-07-01T00:34:11Z,12.78726,21.0284,0.0,87.82136,0,1156,0.49,24.3048,1.1956,43690,0.0,1013.668,0.0,0.725,1011.867,0.0,100.180322287,21.2,100.8555,0.6076,0.684492299408,1.80078
2020-07-01T00:49:11Z,12.78726,20.92691,0.0,88.05817,0,1156,0.6468,23.95687,1.3132,43690,0.0,1013.668,0.0,0.98,1011.867,0.0,107.316378975,21.03,124.5622,0.5488,0.550908858228,1.80078
2020-07-01T01:04:11Z,12.79302,20.28424,0.0,88.8702,0,1156,0.7644,23.69706,1.47,43690,0.0,1013.507,0.0,1.058,1011.706,0.0,100.951767491,20.35,100.7356,0.8035999,0.827375131361,1.80078
2020-07-01T01:19:11Z,12.80041,20.08516,0.0,89.34961,0,1156,0.8231999,23.46661,1.0584,43690,0.0,1013.507,0.0,0.98,1011.706,0.0,99.1350184814,20.02,87.38669,0.686,0.707687560947,1.80078
2020-07-01T01:34:11Z,12.80018,20.32821,0.0,87.93776,0,1156,0.6664,23.38076,0.9408,43690,0.0,1013.507,0.0,0.9410001,1011.706,0.0,100.689876973,20.4,94.19422,0.686,0.688435493491,1.80078
2020-07-01T01:49:10Z,12.79548,20.7014,0.0,87.2625,0,1156,0.7056,23.46661,0.8035999,43690,0.0,1013.507,0.0,0.784,1011.706,0.0,98.3631367925,20.77,87.39715,0.5684,0.577678105917,1.80078
2020-07-01T02:04:15Z,12.79976,20.70156,0.0,86.89054,0,1156,0.3528,23.52309,0.8624,43690,0.0,1013.207,0.0,0.706,1011.406,0.0,107.143492859,20.81,111.7332,0.5488,0.542228234118,1.80078
2020-07-01T02:19:13Z,12.79457,20.73387,0.0,86.71916,0,1156,0.49,23.60894,0.7252,43690,0.0,1013.207,0.0,0.627,1011.406,0.0,102.386316273,20.83,108.0308,0.49,0.466224852071,1.80078
2020-07-01T02:34:16Z,12.7888,20.59646,0.0,87.02071,0,1156,0.5096,23.69706,0.6664,43690,0.0,1013.207,0.0,0.666,1011.406,0.0,107.756215361,20.7,85.78272,0.4508,0.434312941176,1.80078
2020-07-01T02:49:13Z,12.79358,19.3083,0.0,89.55452,0,1156,0.6076,23.58184,1.176,43690,0.0,1013.207,0.0,0.7640001,1011.406,0.0,100.482531037,19.34,95.12334,0.6076,0.615834314793,1.80078
2020-07-01T03:04:12Z,12.80005,18.23089,0.0,90.71297,0,1156,0.9799999,23.20906,1.5288,43690,0.0,1013.411,0.0,1.176,1011.611,0.0,96.8249993892,18.33,99.60019,0.9408,0.934421286982,1.80078
2020-07-01T03:19:15Z,12.81339,18.34109,0.0,92.04626,0,1156,0.3136,22.72784,1.9208,43690,0.0,1013.411,0.0,1.058,1011.611,0.0,92.8250929405,18.41,122.1041,0.7448,0.824237635294,1.80078
2020-07-01T03:34:13Z,12.81363,17.93568,0.0,93.43482,0,1156,0.0,22.33473,2.646,43690,0.0,1013.411,0.0,0.9020001,1011.611,0.0,111.072587054,18.0,133.0619,0.7252,0.972345557988,1.80078
2020-07-01T03:49:16Z,12.81914,18.00336,0.0,93.87475,0,1156,0.5488,22.05684,1.5092,43690,0.0,1013.411,0.0,0.823,1011.611,0.0,105.432218309,18.14,97.3817,0.6272,0.664209404706,1.80078
2020-07-01T04:04:15Z,12.82465,17.80032,0.0,94.24701,0,1156,0.4508,21.88965,1.2544,43690,0.0,1013.11,0.0,0.7450001,1011.309,0.0,106.660035529,17.83,113.5519,0.5684,0.58173727574,1.80078
2020-07-01T04:19:13Z,12.82465,17.93568,0.0,94.28085,0,1156,0.5292,21.75184,0.882,43690,0.0,1013.11,0.0,0.725,1011.309,0.0,107.283526134,17.97,115.1137,0.5292,0.533032359589,1.80078
2020-07-01T04:34:17Z,12.82465,18.0372,0.0,94.4839,0,1156,0.5096,21.67051,1.0192,43690,0.0,1013.11,0.0,0.8430001,1011.309,0.0,104.297851572,18.1,116.3391,0.588,0.599298821176,1.80078
2020-07-01T04:49:16Z,12.82511,17.39423,0.0,94.85614,0,1156,0.6664,21.58692,1.372,43690,0.0,1013.11,0.0,1.294,1011.309,0.0,105.117263165,17.56,104.782,0.6664,0.70273169939,1.80078
2020-07-01T05:04:14Z,12.82532,17.02392,0.0,95.84079,0,1156,0.8035999,21.36777,1.7444,43690,0.0,1013.125,0.0,1.098,1011.324,0.0,99.2579951521,17.13,96.97653,0.7448,0.843888880247,1.80078
2020-07-01T05:19:15Z,12.83191,17.26688,0.0,96.5617,0,1156,0.5096,21.06955,1.2936,43690,0.0,1013.125,0.0,0.882,1011.324,0.0,102.690083545,17.4,79.73294,0.6468,0.6775327904,1.80078
2020-07-01T05:34:18Z,12.82682,17.40299,0.0,96.86754,0,1156,0.6076,21.01532,1.4896,43690,0.0,1013.125,0.0,1.352,1011.324,0.0,111.244172726,17.4,105.3027,0.6076,0.625009406471,1.80078
2020-07-01T05:49:15Z,12.83234,17.50532,0.0,97.27504,0,1156,0.6468,21.01532,1.7444,43690,0.0,1013.125,0.0,0.96,1011.324,0.0,115.339342663,17.57,129.3832,0.6272,0.637289936686,1.80078
2020-07-01T06:04:18Z,12.83785,17.60529,0.0,97.44162,0,1156,0.6076,20.98822,1.0584,43690,0.0,1012.047,0.0,0.8430001,1010.246,0.0,119.84785212,17.74,106.9834,0.3332,0.338734114706,1.80078
2020-07-01T06:19:15Z,12.83232,17.57279,0.0,97.61313,0,1156,0.1176,21.04244,0.8624,43690,0.0,1012.047,0.0,0.784,1010.246,0.0,122.335722181,17.71,144.4261,0.392,0.376459170414,1.80078
2020-07-01T06:34:17Z,12.83234,17.40389,0.0,97.71523,0,1156,0.7644,21.06955,0.9799999,43690,0.0,1012.047,0.0,0.8430001,1010.246,0.0,115.56746498,17.4,113.7152,0.5488,0.522858820588,1.80078
2020-07-01T06:49:15Z,12.83197,17.67268,0.0,97.84725,0,1156,0.588,21.06955,0.9408,43690,0.0,1012.047,0.0,0.529,1010.246,0.0,120.474515634,17.84,128.1775,0.4116,0.370428398817,1.80078
2020-07-01T07:04:18Z,12.83219,17.33622,0.0,97.8845,0,1156,0.6468,21.04244,1.0192,43690,0.0,1012.221,0.0,0.627,1010.42,0.0,112.693689408,17.4,113.8354,0.5684,0.550068232353,1.80078
2020-07-01T07:19:15Z,12.83232,17.50557,0.0,97.98624,0,1156,0.6468,21.01532,0.9995999,43690,0.0,1012.221,0.0,0.608,1010.42,0.0,114.424733032,17.51,101.4115,0.4312,0.384113607692,1.80078
2020-07-01T07:34:18Z,12.83228,17.40417,0.0,98.02034,0,1156,0.0,20.98822,0.8624,43690,0.0,1012.221,0.0,0.0,1010.42,0.0,107.777784103,17.44,125.9477,0.3528,0.319249411765,1.80078
2020-07-01T07:49:15Z,12.83234,17.84399,0.0,98.15539,0,1156,0.0,21.04244,0.8624,43690,0.0,1012.221,0.0,0.706,1010.42,0.0,95.6570663073,17.88,142.6729,0.3724,0.319978697633,1.80078
2020-07-01T08:04:19Z,12.83231,18.21589,0.0,98.2224,0,1156,0.6664,21.15088,0.8428,43690,0.0,1012.051,0.0,0.9020001,1010.251,0.0,110.327612089,18.22,94.77817,0.2548,0.295268233529,1.80078
2020-07-01T08:19:24Z,12.82671,18.04704,0.0004816843,98.08766,0,1156,0.4312,21.28643,0.9408,43690,0.0337179,1012.051,2.408421e-06,0.666,1010.251,0.0,104.426183338,18.18,112.7781,0.5488,0.527091137342,1.80078
2020-07-01T08:34:21Z,12.82631,17.84224,0.0009633686,98.15243,0,1156,0.5096,21.34066,0.7448,43690,0.0674358,1012.051,4.816843e-06,0.451,1010.251,0.0,119.542506646,18.08,112.8228,0.1764,0.215220645161,1.80078
2020-07-01T08:49:23Z,12.82645,17.84076,0.001445053,98.14992,0,1156,0.0,21.34066,0.7644,43690,0.1011537,1012.051,7.225264e-06,0.412,1010.251,0.0,121.488414524,17.84,132.3081,0.0588,0.132127058824,1.80078
2020-07-01T09:04:21Z,12.82635,17.60382,0.004816843,98.18371,0,1156,0.5488,21.34066,0.9799999,43690,0.337179,1011.853,2.408421e-05,0.666,1010.052,0.0,121.03428882,17.77,122.7682,0.2744,0.274863904142,1.80078
2020-07-01T09:19:24Z,12.82109,17.53662,0.007706949,98.21841,0,1156,0.3136,21.28643,0.9995999,43690,0.5394864,1011.853,3.853474e-05,0.7640001,1010.052,0.0,113.970763271,17.64,136.7788,0.4214,0.393268231765,1.80078
2020-07-01T09:34:22Z,12.82127,17.67347,0.01348716,98.32243,0,1156,0.392,21.25933,0.9995999,43690,0.9441012,1011.853,6.74358e-05,0.9020001,1010.052,0.0,109.738790032,17.81,106.2393,0.392,0.378778692899,1.80078
2020-07-01T09:49:24Z,12.82083,17.53907,0.01348716,98.39182,0,1156,0.0,21.23221,0.882,43690,0.9441012,1011.853,6.74358e-05,0.294,1010.052,0.0,119.421370313,17.71,117.5598,0.1764,0.21364,1.80078
2020-07-01T10:04:26Z,12.82096,17.84376,0.02890106,98.56117,0,1156,0.0,21.23221,0.8035999,43690,2.023074,1011.81,0.0001445053,0.7640001,1010.01,0.0,115.392059689,17.91,121.5731,0.0,0.0536117635294,1.80078
2020-07-01T10:19:24Z,12.82648,17.80903,0.05443032,98.55966,0,1156,0.5488,21.23221,0.9211999,43690,3.810123,1011.81,0.0002721516,0.706,1010.01,0.0,112.600470548,17.91,112.752,0.4116,0.369599997279,1.80078
2020-07-01T10:34:26Z,12.82654,17.94447,0.04383327,98.66128,0,1156,0.5684,21.25933,0.8231999,43690,3.068329,1011.81,0.0002191663,0.568,1010.01,0.0,118.027907478,18.01,113.8094,0.3528,0.338350363504,1.80078
2020-07-01T10:49:26Z,12.82083,17.91144,0.0399798,98.69653,0,1156,0.0,21.31355,0.7252,43690,2.798586,1011.81,0.000199899,0.353,1010.01,0.1,116.576670227,17.95,120.9242,0.196,0.201575862069,1.80078
2020-07-01T11:04:24Z,12.82016,18.07897,0.02890028,98.79518,0,1156,0.0,21.34066,0.4312,43690,2.02302,1011.634,0.0001445014,0.176,1009.833,0.0,116.620190954,18.11,77.78622,0.0,0.00985798816568,1.80078
2020-07-01T11:19:27Z,12.82603,17.67191,0.06502736,98.69208,0,1156,0.0,21.36777,0.9604,43690,4.551915,1011.634,0.0003251368,1.019,1009.833,0.0,114.595725294,18.01,295.6646,0.0,0.0126823529412,1.80078
2020-07-01T11:34:25Z,12.83155,16.18031,0.09633686,98.45092,0,1156,0.0,21.28643,1.176,43690,6.74358,1011.634,0.0004816843,0.0,1009.833,0.0,274.467865454,16.21,245.1671,0.0,0.0901136059172,1.80078
2020-07-01T11:49:28Z,12.83755,16.28565,0.1194577,98.59297,0,1156,0.0,21.06955,0.0,43690,8.362039,1011.634,0.0005972885,0.0,1009.833,0.0,243.847150635,16.32,244.7992,0.0,0.0,1.80078
2020-07-01T12:04:26Z,12.83741,16.99774,0.1314998,98.7645,0,1156,0.0,21.04244,0.0,43690,9.204986,1012.058,0.000657499,0.0,1010.257,0.0,268.869588183,17.0,301.9269,0.0,0.0,1.80078
2020-07-01T12:19:28Z,12.83233,17.97927,0.1353533,98.89985,0,1156,0.0,21.17799,0.0,43690,9.47473,1012.058,0.0006767664,0.0,1010.257,0.0,283.297076803,17.88,282.7259,0.0,0.0,1.80078
2020-07-01T12:34:25Z,12.83759,17.97627,0.1531756,98.89472,0,1156,0.0,21.34066,0.0,43690,10.72229,1012.058,0.000765878,0.0,1010.257,0.0,278.077467718,18.01,261.0844,0.0,0.0,1.80078
2020-07-01T12:49:28Z,12.83608,18.2771,0.2023006,98.956,0,1156,0.0,21.5598,0.0,43690,14.16104,1012.058,0.001011503,0.0,1010.257,0.0,257.386381412,18.35,250.3749,0.0,0.0,1.80078
2020-07-01T13:04:26Z,12.81918,17.32678,0.1560453,98.64673,0,1156,0.0,21.91903,0.0,43690,10.92317,1011.329,0.0007802266,0.0,1009.528,0.0,253.764852206,17.6,262.3766,0.0,0.0,1.80078
2020-07-01T13:19:29Z,12.81364,17.8342,0.175769,98.71409,0,1156,0.0,22.11332,0.0,43690,12.30383,1011.329,0.000878845,0.0,1009.528,0.0,275.151001444,17.83,277.3686,0.0,0.0,1.80078
2020-07-01T13:34:26Z,12.80813,18.10493,0.1743155,98.84945,0,1156,0.0,22.27825,0.0,43690,12.20209,1011.329,0.0008715776,0.0,1009.528,0.0,277.713249214,18.14,258.0268,0.0,0.0,1.80078
2020-07-01T13:49:29Z,12.81364,18.54486,0.247021,98.95098,0,1156,0.0,22.4748,0.0,43690,17.29147,1011.329,0.001235105,0.0,1009.528,0.0,253.406646095,18.54,268.2624,0.0,0.0,1.80078
2020-07-01T14:04:27Z,12.80813,18.68023,0.3298427,98.84945,0,1156,0.0,22.98088,0.0,43690,23.08899,1011.486,0.001649214,0.0,1009.685,0.0,248.609640994,18.75,240.2468,0.0,0.0,1.80078
2020-07-01T14:19:31Z,12.78965,18.26675,0.3062481,98.49855,0,1156,0.0,23.75354,0.8428,43690,21.43737,1011.486,0.001531241,0.666,1009.685,0.0,244.973633121,18.47,242.8349,0.0,0.117138822941,1.80078
2020-07-01T14:34:28Z,12.78739,19.26978,0.5041537,98.57999,0,1156,0.0,24.42228,0.0,43690,35.29076,1011.486,0.002520768,0.0,1009.685,0.0,256.226937811,19.54,265.7719,0.0,0.0,1.80078
2020-07-01T14:49:31Z,12.76523,20.72396,0.6061761,98.44386,0,1156,0.0,25.52253,0.8624,43690,42.43232,1011.486,0.00303088,0.588,1009.685,0.0,264.010476085,21.3,265.4574,0.0,0.0653333326797,1.80078
2020-07-01T15:04:30Z,12.74835,20.07937,0.5684984,96.51263,0,1156,0.0,26.9323,0.9211999,43690,39.79489,1011.233,0.002842492,0.823,1009.432,0.0,247.762895532,20.52,234.4899,0.0,0.118317071341,1.80078
2020-07-01T15:19:30Z,12.73906,21.41449,1.08643,96.31523,0,1156,0.7644,27.94445,0.7056,43690,76.05008,1011.233,0.005432148,0.274,1009.432,0.0,246.887048379,20.91,264.507,0.0,0.0258611111111,1.80078
2020-07-01T15:34:33Z,12.72787,20.73726,0.8351596,87.85935,0,1156,0.0,29.08311,1.2152,43690,58.46117,1011.233,0.004175798,0.431,1009.432,0.0,244.596315573,21.11,234.8259,0.3528,0.438002342941,1.80078
2020-07-01T15:49:30Z,12.71519,21.37152,1.008757,85.48055,0,1156,0.0392,29.85125,1.4112,43690,70.61302,1011.233,0.005043786,1.254,1009.432,0.0,229.608351385,21.81,227.2078,0.2156,0.375183429586,1.80078
2020-07-01T16:04:34Z,12.70717,22.57715,0.8474907,81.0697,0,1156,0.4508,30.32795,1.3328,43690,59.32435,1010.672,0.004237454,1.098,1008.871,0.0,237.120432,22.92,247.7842,0.1372,0.306567053529,1.80078
2020-07-01T16:19:32Z,12.71255,24.33405,0.9225419,75.49023,0,1156,0.6076,30.67136,1.2936,43690,64.57794,1010.672,0.004612709,1.294,1008.871,0.0,250.233196016,24.57,250.1563,0.0196,0.250044968047,1.80078
2020-07-01T16:34:34Z,12.70154,24.50306,0.8704916,74.17175,0,1156,1.0192,31.36947,1.568,43690,60.93441,1010.672,0.004352458,1.156,1008.871,0.0,252.612780518,24.71,243.3155,0.7056,0.680927047647,1.80078
2020-07-01T16:49:32Z,12.69053,25.7877,0.749225,73.25898,0,1156,0.0,32.18732,1.5484,43690,52.44575,1010.672,0.003746125,1.313,1008.871,0.0,253.562164706,25.75,285.1522,0.8624,0.793626027811,1.80078
2020-07-01T17:04:30Z,12.68502,25.34822,0.8979152,76.63964,0,1156,0.9995999,32.58721,1.2348,43690,62.85406,1010.645,0.004489576,1.215,1008.844,0.0,255.045549419,24.94,260.7654,0.5292,0.500785789349,1.80078
2020-07-01T17:19:35Z,12.69053,22.81273,0.8031192,78.66804,0,1156,0.0,32.62336,1.3916,43690,56.21834,1010.645,0.004015596,1.392,1008.844,0.0,262.849327462,22.95,274.279,0.8231999,0.719896455882,1.80078
2020-07-01T17:34:33Z,12.68502,22.94795,1.010997,76.16634,0,1156,0.0,32.44036,1.372,43690,70.76976,1010.645,0.005054983,0.0,1008.844,0.0,269.361219632,23.49,296.5535,0.3332,0.470515972189,1.80078
2020-07-01T17:49:31Z,12.69053,26.59907,0.9522905,63.82692,0,1156,0.882,32.58721,1.4896,43690,66.66033,1010.645,0.004761452,1.274,1008.844,0.0,270.973522567,27.11,278.7195,0.8428,0.814269810651,1.80078
2020-07-01T18:04:35Z,12.68502,25.95674,0.7949388,65.99055,0,1156,1.2348,32.95321,1.4896,43690,55.64572,1009.996,0.003974694,1.49,1008.195,0.0,260.760024443,26.33,276.9912,0.8428,0.753677634118,1.80078
2020-07-01T18:19:33Z,12.67885,25.31113,0.9065767,70.6523,0,1156,0.8428,33.17461,1.372,43690,63.46037,1009.996,0.004532884,1.0,1008.195,0.0,263.559797947,25.51,282.4496,0.6076,0.539521883432,1.80078
2020-07-01T18:34:32Z,12.67831,25.88114,0.897434,70.24167,0,1156,1.1172,33.35987,1.47,43690,62.82038,1009.996,0.00448717,1.352,1008.195,0.0,270.081348244,25.98,270.6937,0.9799999,0.876897028402,1.80078
2020-07-01T18:49:36Z,12.67225,26.4564,0.7930141,72.06767,0,1156,0.1764,33.66035,1.4112,43690,55.51098,1009.996,0.00396507,1.156,1008.195,0.0,248.216604819,26.49,244.6802,0.5096,0.521821170588,1.80078
2020-07-01T19:04:34Z,12.66652,26.82263,0.790105,68.17464,0,1156,0.5096,33.99924,1.47,43690,55.30735,1009.665,0.003950525,1.294,1007.864,0.0,255.682706293,27.5,245.2357,0.9211999,0.87179406568,1.80078
2020-07-01T19:19:37Z,12.6656,24.45543,0.7957916,74.12206,0,1156,1.1956,34.07605,1.4112,43690,55.70541,1009.665,0.003978958,1.294,1007.864,0.0,265.75345856,24.45,276.3559,0.9408,0.810171757647,1.80078
2020-07-01T19:34:35Z,12.67786,24.56063,0.6948295,71.52371,0,1156,0.9408,33.66035,1.9208,43690,48.63806,1009.665,0.003474148,1.254,1007.864,0.0,274.78658121,24.63,283.8119,0.9408,0.945207078698,1.80078
2020-07-01T19:49:33Z,12.68401,26.08689,0.6149702,68.28416,0,1156,0.8624,33.24916,1.4112,43690,43.04791,1009.665,0.003074851,1.294,1007.864,0.0,273.839076371,26.32,278.002,0.8624,0.878984595266,1.80078
2020-07-01T20:05:31Z,12.68473,27.10558,0.6626091,67.7479,0,1156,0.7448,33.06391,1.47,43690,46.38264,1008.924,0.003313045,1.45,1007.123,0.0,277.430107639,27.07,261.5072,0.9211999,0.949794500685,1.80078
2020-07-01T20:20:28Z,12.6795,25.21297,0.6120834,70.18254,0,1156,0.9408,33.06391,1.6464,43690,42.84584,1008.924,0.003060417,1.568,1007.123,0.0,266.314456951,25.31,275.575,0.882,0.856147230675,1.80078
2020-07-01T20:35:30Z,12.69052,24.3678,0.5644448,70.79106,0,1156,1.6072,32.7318,2.4304,43690,39.51114,1008.924,0.002822224,1.137,1007.123,0.0,288.32863171,24.4,295.6172,1.0682,1.16550822176,1.80078
2020-07-01T20:50:29Z,12.69603,21.73088,0.5220994,77.75522,0,1156,2.548,32.00884,3.4888,43690,36.54696,1008.924,0.002610497,2.548,1007.123,0.0,297.318361833,22.04,303.5141,1.274,1.34845679822,1.80078
2020-07-01T21:05:27Z,12.71254,20.34481,0.4807326,83.09666,0,1156,0.49,30.91311,3.1948,43690,33.65128,1009.022,0.002403663,1.823,1007.221,0.0,300.434949649,20.55,324.8045,1.1564,1.24918105858,1.80078
2020-07-01T21:20:31Z,12.72426,21.87158,0.445658,80.56829,0,1156,1.47,29.68407,1.9208,43690,31.19606,1009.022,0.00222829,1.921,1007.221,0.0,296.056578898,21.87,314.6792,0.8428,0.922468221176,1.80078
2020-07-01T21:35:29Z,12.72763,21.04059,0.3841222,82.1427,0,1156,0.5096,29.15089,2.352,43690,26.88855,1009.022,0.001920611,1.646,1007.221,0.0,296.026366469,21.28,309.0381,0.9995999,1.08136330296,1.80078
2020-07-01T21:50:32Z,12.72235,22.0223,0.3306941,79.33714,0,1156,0.882,28.82103,2.156,43690,23.14859,1009.022,0.00165347,1.49,1007.221,0.0,289.15787884,21.89,309.7395,1.078,1.08918352,1.80078
2020-07-01T22:05:30Z,12.72786,21.6503,0.2214254,81.1295,0,1156,1.2152,28.72163,1.6072,43690,15.49978,1009.031,0.001107127,1.548,1007.23,0.0,297.700784868,21.95,285.1284,0.7644,0.846047324852,1.80078
2020-07-01T22:20:33Z,12.73337,20.7034,0.2479002,81.33241,0,1156,1.764,28.33078,2.058,43690,17.35302,1009.031,0.001239501,1.686,1007.23,0.0,292.022817882,21.11,311.3962,0.9015999,1.00490351765,1.80078
2020-07-01T22:35:32Z,12.73887,18.47141,0.1511469,86.43893,0,1156,1.2152,27.72078,3.2928,43690,10.58029,1009.031,0.0007557346,3.293,1007.23,0.0,298.216525428,18.88,309.5714,1.3132,1.42152188639,1.80078
2020-07-01T22:50:29Z,12.75722,17.19475,0.1309298,90.74719,0,1156,0.49,26.65216,3.0576,43690,9.165088,1009.031,0.0006546491,0.98,1007.23,0.0,303.050746051,17.29,296.3851,0.7448,0.797221286982,1.80078
2020-07-01T23:06:34Z,12.77619,17.03623,0.09291546,92.28638,0,1156,0.4312,25.40279,1.9012,43690,6.504083,1009.109,0.0004645773,1.313,1007.308,0.0,306.502067786,17.14,313.3735,0.6664,0.713324697059,1.80078
2020-07-01T23:21:31Z,12.78175,16.39376,0.08233878,92.15154,0,1156,1.078,24.53975,1.2348,43690,5.763714,1009.109,0.0004116939,0.9410001,1007.308,0.0,297.980597897,16.6,294.2801,0.6468,0.627899989286,1.80078
2020-07-01T23:36:30Z,12.78862,15.89196,0.03226196,92.63449,0,1156,1.0584,23.69706,1.47,43690,2.258337,1009.109,0.0001613098,1.156,1007.308,0.0,286.077094514,15.99,288.0402,0.7448,0.726005467808,1.80078
2020-07-01T23:51:33Z,12.80798,15.12621,0.01396414,93.67055,0,1156,0.0,22.81143,2.1756,43690,0.9774896,1009.109,6.982069e-05,1.117,1007.308,0.0,295.511483834,15.23,1.826034,0.7448,0.751964123448,1.80078
2020-07-02T00:06:32Z,12.82465,15.02536,0.004816479,94.99151,0,1156,0.7252,21.94614,0.9604,43690,0.3371535,1009.049,2.408239e-05,0.9210001,1007.248,0,320.011101918,15.09,301.7559,0.3724,0.356376639416,1.80078
2020-07-02T00:21:30Z,12.83762,14.69508,0.0009633669,95.61486,0,1156,0.9604,21.17799,1.3524,43690,0.06743568,1009.049,4.816834e-06,1.294,1007.248,0,297.709567687,14.73,291.6118,0.8035999,0.825751457396,1.80078
2020-07-02T00:36:35Z,12.85607,14.60198,0.0,96.17124,0,1156,0.0588,20.52958,2.058,43690,0.0,1009.049,0.0,2.058,1007.248,0,291.938402718,14.6,292.9547,0.8624,0.865743509412,1.80078
2020-07-02T00:51:34Z,12.86206,14.67157,0.0,96.54696,0,1156,1.0388,19.9964,1.2544,43690,0.0,1009.049,0.0,1.294,1007.248,0,289.000777024,14.64,277.8227,0.6468,0.513543182249,1.80078
2020-07-02T01:06:32Z,12.86207,14.29924,0.0,96.68244,0,1156,0.784,19.67785,1.4896,43690,0.0,1010.196,0.0,0.98,1008.395,0,274.996959018,14.43,292.7007,1.078,1.07695619645,1.80078
2020-07-02T01:21:35Z,12.8731,14.63776,0.0,97.08867,0,1156,0.8428,19.3367,1.1368,43690,0.0,1010.196,0.0,1.098,1008.395,0,297.096717437,14.67,301.5216,0.686,0.642303519412,1.80078
2020-07-02T01:36:32Z,12.86759,14.4008,0.0,97.29178,0,1156,0.8035999,19.12885,1.176,43690,0.0,1010.196,0.0,1.039,1008.395,0,299.432755081,14.6,305.944,0.7056,0.696553831361,1.80078
2020-07-02T01:51:35Z,12.8731,14.43465,0.0,97.35949,0,1156,0.7252,18.97297,1.4504,43690,0.0,1010.196,0.0,1.274,1008.395,0,283.503403972,14.47,285.5862,0.9408,0.964204694118,1.80078
2020-07-02T02:06:34Z,12.8731,13.96072,0.0,97.4949,0,1156,0.9211999,18.84192,1.4308,43690,0.0,1009.627,0.0,0.9210001,1007.827,0,279.444729508,14.1,298.5893,0.8035999,0.689801192121,1.80078
2020-07-02T02:21:32Z,12.8731,13.79145,0.0,97.59645,0,1156,0.9015999,18.63633,1.4112,43690,0.0,1009.627,0.0,1.411,1007.827,0,290.333143454,13.79,293.1333,0.9015999,0.820586648485,1.80078
2020-07-02T02:36:34Z,12.87861,13.82578,0.0,97.73273,0,1156,0.9995999,18.45559,1.7836,43690,0.0,1009.627,0.0,1.784,1007.827,0,269.183894758,13.89,259.1738,0.9799999,1.03122452577,1.80078
2020-07-02T02:51:35Z,12.88445,13.89529,0.0,97.76986,0,1156,0.8428,18.30197,1.9404,43690,0.0,1009.627,0.0,1.333,1007.827,0,254.820009371,14.0,253.0293,0.8231999,0.975290896753,1.80078
2020-07-02T03:06:35Z,12.88527,13.36002,0.0,97.91699,0,1156,0.8428,18.12349,1.1368,43690,0.0,1009.35,0.0,1.058,1007.549,0,242.750812286,13.43,261.4733,0.6272,0.625483205839,1.80078
2020-07-02T03:21:34Z,12.88713,13.46613,0.0,98.06074,0,1156,0.8231999,17.945,1.4308,43690,0.0,1009.35,0.0,0.96,1007.549,0,256.926264432,13.53,252.1915,0.784,0.814587859848,1.80078
2020-07-02T03:36:38Z,12.89368,13.26752,0.0,98.13686,0,1156,1.2936,17.79138,1.3916,43690,0.0,1009.35,0.0,1.274,1007.549,0,268.230925183,13.47,276.4967,0.8231999,0.87504139645,1.80078
2020-07-02T03:51:37Z,12.894,13.20014,0.0,98.17136,0,1156,1.1956,17.64,1.47,43690,0.0,1009.35,0.0,1.47,1007.549,0,277.220358967,13.2,262.7457,1.1956,1.16317893835,1.80078
2020-07-02T04:06:55Z,12.89952,13.06464,0.0,98.23901,0,1156,0.7252,17.48864,1.3328,43690,0.0,1008.821,0.0,1.078,1007.021,0,263.929577433,13.2,256.7346,0.7644,0.788842336471,1.80078
2020-07-02T04:25:21Z,12.89952,13.26786,0.0,98.30681,0,1156,0.7056,17.36212,1.372,43690,0.0,1008.821,0.0,1.019,1007.021,0,271.637333921,13.37,263.2025,1.0682,1.03543998429,1.80078
2020-07-02T04:40:20Z,12.89952,13.33559,0.0,98.34067,0,1156,0.0,17.31241,1.2936,43690,0.0,1008.821,0.0,0.0,1007.021,0,274.330814817,13.4,277.1717,0.7154,0.500137910345,1.80078
2020-07-02T04:55:17Z,12.89952,13.36946,0.0,98.37454,0,1156,0.882,17.31241,1.47,43690,0.0,1008.821,0.0,1.078,1007.021,0,282.97652177,13.44,276.9072,0.9015999,0.947178675148,1.80078
2020-07-02T05:10:20Z,12.89952,13.234,0.0,98.44227,0,1156,1.1368,17.28756,1.4112,43690,0.0,1008.987,0.0,1.411,1007.186,0,269.73604268,13.37,274.9597,0.8624,0.922583508824,1.80078
2020-07-02T05:25:22Z,12.89952,13.20014,0.0,98.4084,0,1156,1.2936,17.21075,1.4112,43690,0.0,1008.987,0.0,1.392,1007.186,0,279.904472717,13.27,265.9675,1.0976,0.980576458824,1.80078
2020-07-02T05:40:19Z,12.89952,13.09855,0.0,98.44227,0,1156,1.2348,17.18589,1.4308,43690,0.0,1008.987,0.0,1.352,1007.186,0,277.162146703,13.27,269.3576,1.1564,1.03056566982,1.80078
2020-07-02T05:55:20Z,12.89401,13.03082,0.0,98.47613,0,1156,1.274,17.16105,1.6268,43690,0.0,1008.987,0.0,1.313,1007.186,0,265.990825602,13.2,284.2885,1.1956,1.14002823,1.80078
2020-07-02T06:10:22Z,12.89952,13.234,0.0,98.47613,0,1156,0.882,17.11134,1.3328,43690,0.0,1008.255,0.0,1.333,1006.455,0,287.577762064,13.3,290.3474,0.8428,0.743531751176,1.80078
2020-07-02T06:25:20Z,12.90504,13.06468,0.0,98.54386,0,1156,1.274,17.06163,1.3524,43690,0.0,1008.255,0.0,1.333,1006.455,0,280.309128273,13.17,283.7596,0.6468,0.579649697633,1.80078
2020-07-02T06:40:22Z,12.89952,13.16628,0.0,98.57772,0,1156,0.9015999,16.98482,1.4308,43690,0.0,1008.255,0.0,1.098,1006.455,0,288.177206071,13.1,284.4809,0.8231999,0.818357624706,1.80078
2020-07-02T06:55:19Z,12.90504,13.234,0.0,98.57772,0,1156,1.1172,16.93512,1.3524,43690,0.0,1008.255,0.0,1.274,1006.455,0,278.963536582,13.27,263.9719,0.9015999,0.854629575148,1.80078
2020-07-02T07:10:21Z,12.90504,13.16628,0.0,98.57772,0,1156,1.6464,16.93512,1.9992,43690,0.0,1008.093,0.0,1.431,1006.292,0,251.553492465,13.27,246.3481,0.637,0.737075288235,1.80078